SCOUT A DEB, 2777

Orbit data source: Space-Track

SCOUT A DEB, 2777 is space debris in LEO originally from a launch on Fri, 14 Apr 1967 UTC launched from the Air Force Western Test Range (AFWTR). Debris objects in space refer to the collection of defunct objects orbiting the Earth. Examples of debris include non-operational satellites, rocket bodies, and fragments generated from explosions, collisions, or faulty payload assembly.

Loading next visibility...
Identifier
2777, 1967-034C
Orbit
LEO
Country
Flag of USUS
Related business
Manufacturer
Unknown
Mission
Spacecraft
Bus & Motor
Unknown
Mass
Unknown
Launch date (UTC)
1967-04-14 (59 years ago)
Launch vehicle
Unknown
Launch site
Air Force Western Test Range (AFWTR)
Object type
Payload
Rocket body
Debris
Shape & HBR
Unknown shape, 0.1 m
Radar Cross Section
Small (<0.1 m²)

Expand to show TLE details & history
Last TLE update: 2 days ago

TLE from 2 days ago
0 SCOUT A DEB
1 02777U 67034C   25299.81092801  .00000809  00000-0  45618-3 0  9993
2 02777  90.2798 237.9918 0130261 128.5171 232.7776 14.05406054976686
Epoch: 2025-10-26T19:27Z
TLE epoch observation values (Epoch: 2025-10-26T19:27:44.180Z)
Latitude
0.00001°
Longitude
-89.36406°
Altitude
936.107 km
Speed
7.354 km/s
True Right ascension
15h 51m 58s
True Declination
0° 00' 00"
Sunlit
Object was in daylight at epoch
Visualization orbit readout
Latitude
Unknown
Longitude
Unknown
Altitude
Unknown
Speed
Unknown
Apparent Right ascension
Unknown
Apparent Declination
Unknown
Sunlit
N/A
Visualization observer readout
Local Sidereal Time
13:36:27
Azimuth
Unknown
Elevation
Unknown
Doppler factor
Unknown
Orbital elements
Apogee altitude
966.546 km
Perigee altitude
777.661 km
Semi-major axis
7,250.241 km
Eccentricity
0.01303
Inclination
90.2798°
RAAN
237.9918°
Arg. of periapsis
128.5171°
True anomaly
231.60067°
Mean anomaly
232.7776°
Eccentric anomaly
232.18797°
Mean motion
3.51572 °/min
Orbital period
102.4 mins
BSTAR
0.00045618
Loading maneuver chart data...
Computing Atmospheric mass density...
Loading historical data...
Loading historical data...
Loading historical data...
Loading historical data...
Loading historical data...
Loading historical data...
Loading historical data...

Documentation

Showing up to 5 results
|